Regional Weather Roundup
Issued by NWS

Home | Current Version | Previous Version | Text Only | Print | Product List | Glossary On
Versions: 1 2 3 4 5 6 7 8 9 10 11 12 13 14 15 16 17 18 19 20 21 22 23 24 25 26 27 28 29 30 31 32 33 34 35 36 37 38 39 40 41 42 43 44 45 46 47 48 49 50
000
ASUS44 KJAN 310710
RWRMS

MISSISSIPPI HOURLY WEATHER ROUNDUP
NATIONAL WEATHER SERVICE JACKSON MS
200 AM CDT TUE MAY 31 2016

NOTE: "FAIR: INDICATES FEW OR NO CLOUDS BELOW 12,000 FEET WITH NO
SIGNIFICANT WEATHER AND/OR OBSTRUCTIONS TO VISIBILITY.

MSZ001>002-007>008-010>013-018>021-025>028-034>036-310800-
NORTHWEST MISSISSIPPI

CITY           SKY/WX    TMP DP  RH WIND       PRES   REMARKS
BATESVILLE     FAIR      70  64  80 CALM      29.95F
CLARKSDALE     CLEAR     70  70 100 NE7       29.93F
CLEVELAND      CLOUDY    72  72 100 SW9G18    29.97R
GREENWOOD      CLOUDY    73  66  78 CALM      29.93F
GREENVILLE     CLOUDY    71  66  84 E7        29.93F
OLIVE BRANCH   CLEAR     70  70 100 N5        29.95F
OXFORD         FAIR      72  64  78 NW3       29.96F
TUNICA         MOSUNNY   68  63  83 N5        29.95F
WINONA         FAIR      73  67  82 CALM      29.93F
$$

MSZ003>006-009-014>017-022>024-029>033-037>039-310800-
NORTHEAST MISSISSIPPI

CITY           SKY/WX    TMP DP  RH WIND       PRES   REMARKS
COLUMBUS AFB   NOT AVBL
CORINTH        FAIR      66  64  94 CALM      29.93F
GOLDN TRIANGLE CLOUDY    73  64  73 CALM      29.92F
STARKVILLE     FAIR      70  66  88 CALM      29.91F
TUPELO         CLOUDY    71  62  73 N5        29.93F
$$

MSZ040-058-310800-
CENTRAL MISSISSIPPI

CITY           SKY/WX    TMP DP  RH WIND       PRES   REMARKS
JACKSON INTL   PTCLDY    70  66  87 CALM      29.93F
JACKSON HAWKNS CLEAR     71  65  81 N3        29.94F
MADISON        FAIR      68  64  88 CALM      29.94F
MERIDIAN KEY   CLOUDY    73  67  81 S3        29.92F
MERIDIAN NAS   CLOUDY    71  67  87 CALM      29.92F
VICKSBURG TVR  PTCLDY    71  68  90 CALM      29.92F
VICKSBURG VKS  MOSUNNY   70  68  94 CALM      29.93F
$$

MSZ059>079-310800-
SOUTH MISSISSIPPI

CITY           SKY/WX    TMP DP  RH WIND       PRES   REMARKS
BROOKHAVEN     FAIR     N/A N/A N/A CALM      29.95F
COLUMBIA       CLOUDY    70  70 100 CALM      29.98S FOG
HATTIESBURG    LGT RAIN  74  70  87 CALM      29.94S
MCCOMB         CLEAR     67  64  90 CALM      29.95F
NATCHEZ        CLEAR     68  64  88 CALM      29.94S
PINE BELT      CLOUDY    72  64  78 CALM      29.95F
$$

MSZ080>082-310800-
COASTAL MISSISSIPPI

CITY           SKY/WX    TMP DP  RH WIND       PRES   REMARKS
BILOXI         NOT AVBL
PASCAGOULA     PTCLDY    68  67  96 CALM      29.93F
GULFPORT       CLEAR     75  72  90 CALM      29.92F
$$



USA.gov is the U.S. government's official web portal to all federal, state and local government web resources and services.